Location: Chippewa Lake
(41.0698°N, 81.9010°W)
Time: 20:01:56
(UTC+00:00)

Cosmos 1606 - Pass Details

Date: 09 May 2021
Orbit: 503 x 525 km, 82.5° (Epoch: 16 June)

Event Time Altitude Azimuth Distance (km) Brightness Sun altitude
Rises 01:48:06 0° 199° (SSW) 2,589 6.1 -13.1°
Reaches altitude 10° 01:50:15 10° 204° (SSW) 1,711 5.2 -13.4°
Maximum altitude 01:53:53 49° 280° (W) 664 3.6 -14.0°
Drops below altitude 10° 01:57:35 10° 357° (N) 1,734 6.0 -14.5°
Sets 01:59:46 0° 3° (N) 2,628 6.8 -14.8°
